| time (UTC) | temp C | wind direction | speed KPH | gust KPH | rain 1hr cm | rain 24hr cm | rain mn cm | humidity % | barometer mb |
| 20260506023603 | -6 | 101 | 0.0 | 3.2 | 0.00 | 0.00 | 0.00 | 77 | 1011.1 |
| 20260506022916 | -6 | 112 | 0.0 | 3.2 | 0.00 | 0.00 | 0.00 | 77 | 1011.2 |
| 20260506021803 | -6 | 0 | 0.0 | 0.0 | 0.00 | 0.00 | 0.00 | 76 | 1011.2 |
| 20260506021116 | -6 | 0 | 0.0 | 0.0 | 0.00 | 0.00 | 0.00 | 76 | 1011.2 |
| 20260506020003 | -6 | 0 | 0.0 | 0.0 | 0.00 | 0.00 | 0.00 | 76 | 1011.2 |
| 20260506015403 | -6 | 0 | 0.0 | 0.0 | 0.00 | 0.00 | 0.00 | 76 | 1011.3 |
| 20260506014717 | -6 | 0 | 0.0 | 0.0 | 0.00 | 0.00 | 0.00 | 76 | 1011.3 |
| 20260506013603 | -5 | 135 | 0.0 | 1.6 | 0.00 | 0.00 | 0.00 | 76 | 1011.3 |
| 20260506012703 | -5 | 0 | 0.0 | 0.0 | 0.00 | 0.00 | 0.00 | 76 | 1011.4 |
| 20260506011803 | -5 | 0 | 0.0 | 0.0 | 0.00 | 0.00 | 0.00 | 77 | 1011.3 |
| 20260506011116 | -5 | 0 | 0.0 | 0.0 | 0.00 | 0.00 | 0.00 | 77 | 1011.4 |
| 20260506010214 | -5 | 0 | 0.0 | 0.0 | 0.00 | 0.00 | 0.00 | 76 | 1011.4 |
| 20260506005403 | -5 | 0 | 0.0 | 0.0 | 0.00 | 0.00 | 0.00 | 77 | 1011.5 |
| 20260506004718 | -5 | 0 | 0.0 | 0.0 | 0.00 | 0.00 | 0.00 | 77 | 1011.4 |
| 20260506003815 | -5 | 0 | 0.0 | 0.0 | 0.00 | 0.00 | 0.00 | 75 | 1011.5 |
| 20260506002703 | -5 | 0 | 0.0 | 0.0 | 0.00 | 0.00 | 0.00 | 75 | 1011.5 |
| 20260506001805 | -5 | 0 | 0.0 | 0.0 | 0.00 | 0.00 | 0.00 | 75 | 1011.5 |
| 20260506000903 | -5 | 0 | 0.0 | 0.0 | 0.00 | 0.00 | 0.00 | 75 | 1011.4 |
| 20260506000003 | -5 | 0 | 0.0 | 0.0 | 0.00 | 0.00 | 0.00 | 75 | 1011.6 |
| 20260505235403 | -5 | 0 | 0.0 | 0.0 | 0.00 | 0.00 | 0.00 | 75 | 1011.7 |
| 20260505234713 | -5 | 0 | 0.0 | 0.0 | 0.00 | 0.00 | 0.00 | 74 | 1011.5 |
| 20260505233815 | -5 | 0 | 0.0 | 0.0 | 0.00 | 0.00 | 0.00 | 73 | 1011.5 |
| 20260505232913 | -5 | 0 | 0.0 | 0.0 | 0.00 | 0.00 | 0.00 | 73 | 1011.4 |
| 20260505232015 | -5 | 0 | 0.0 | 0.0 | 0.00 | 0.00 | 0.00 | 72 | 1011.3 |
| 20260505231112 | -5 | 0 | 0.0 | 0.0 | 0.00 | 0.00 | 0.00 | 72 | 1011.4 |
| 20260505230215 | -5 | 0 | 0.0 | 0.0 | 0.00 | 0.00 | 0.00 | 71 | 1011.1 |
| 20260505225403 | -5 | 0 | 0.0 | 0.0 | 0.00 | 0.00 | 0.00 | 71 | 1011.0 |
| 20260505224714 | -5 | 0 | 0.0 | 0.0 | 0.00 | 0.00 | 0.00 | 71 | 1011.0 |
| 20260505223603 | -4 | 135 | 0.0 | 1.6 | 0.00 | 0.00 | 0.00 | 70 | 1011.0 |
| 20260505222703 | -4 | 135 | 1.6 | 1.6 | 0.00 | 0.00 | 0.00 | 69 | 1010.8 |
| 20260505222016 | -4 | 0 | 0.0 | 0.0 | 0.00 | 0.00 | 0.00 | 69 | 1010.8 |
| 20260505220903 | -4 | 112 | 1.6 | 1.6 | 0.00 | 0.00 | 0.00 | 67 | 1010.9 |
| 20260505220215 | -4 | 0 | 0.0 | 0.0 | 0.00 | 0.00 | 0.00 | 67 | 1010.8 |
| 20260505215617 | -3 | 0 | 0.0 | 0.0 | 0.00 | 0.00 | 0.00 | 67 | 1010.8 |
| 20260505214503 | -3 | 0 | 0.0 | 0.0 | 0.00 | 0.00 | 0.00 | 66 | 1010.9 |
| 20260505213817 | -3 | 0 | 0.0 | 0.0 | 0.00 | 0.00 | 0.00 | 66 | 1010.9 |
| 20260505212914 | -3 | 0 | 0.0 | 0.0 | 0.00 | 0.00 | 0.00 | 65 | 1010.8 |
| 20260505211803 | -2 | 18 | 0.0 | 1.6 | 0.00 | 0.00 | 0.00 | 65 | 1010.9 |
| 20260505211114 | -2 | 198 | 1.6 | 1.6 | 0.00 | 0.00 | 0.00 | 62 | 1010.8 |
| 20260505210216 | -2 | 328 | 0.0 | 3.2 | 0.00 | 0.00 | 0.00 | 62 | 1010.6 |
| 20260505205403 | -2 | 6 | 3.2 | 4.8 | 0.00 | 0.00 | 0.00 | 62 | 1010.5 |
| 20260505204715 | -1 | 16 | 0.0 | 9.7 | 0.00 | 0.00 | 0.00 | 61 | 1010.5 |
| 20260505203603 | -1 | 60 | 3.2 | 4.8 | 0.00 | 0.00 | 0.00 | 61 | 1010.4 |
| 20260505202915 | -1 | 42 | 0.0 | 8.0 | 0.00 | 0.00 | 0.00 | 61 | 1010.5 |
| 20260505201803 | -1 | 22 | 3.2 | 3.2 | 0.00 | 0.00 | 0.00 | 60 | 1010.5 |
| 20260505201114 | -1 | 0 | 0.0 | 0.0 | 0.00 | 0.00 | 0.00 | 59 | 1010.4 |
| 20260505200004 | -1 | 0 | 0.0 | 0.0 | 0.00 | 0.00 | 0.00 | 58 | 1010.3 |
| 20260505195403 | -1 | 0 | 0.0 | 0.0 | 0.00 | 0.00 | 0.00 | 58 | 1010.2 |
| 20260505194503 | -1 | 353 | 0.0 | 3.2 | 0.00 | 0.00 | 0.00 | 58 | 1010.0 |
| 20260505193813 | 0 | 299 | 1.6 | 4.8 | 0.00 | 0.00 | 0.00 | 59 | 1010.0 |
| 20260505192703 | 0 | 323 | 4.8 | 6.4 | 0.00 | 0.00 | 0.00 | 59 | 1009.9 |
| 20260505191803 | 0 | 327 | 6.4 | 6.4 | 0.00 | 0.00 | 0.00 | 57 | 1009.9 |
| 20260505191115 | 0 | 332 | 1.6 | 1.6 | 0.00 | 0.00 | 0.00 | 56 | 1010.0 |
| 20260505190004 | 0 | 24 | 0.0 | 6.4 | 0.00 | 0.00 | 0.00 | 55 | 1009.9 |
| 20260505185614 | 0 | 25 | 0.0 | 6.4 | 0.00 | 0.00 | 0.00 | 55 | 1009.9 |
| 20260505184716 | 0 | 294 | 1.6 | 6.4 | 0.00 | 0.00 | 0.00 | 55 | 1009.8 |
| 20260505183603 | 0 | 286 | 1.6 | 8.0 | 0.00 | 0.00 | 0.00 | 54 | 1009.6 |
| 20260505182703 | 0 | 289 | 4.8 | 12.9 | 0.00 | 0.00 | 0.00 | 54 | 1009.6 |
| 20260505181803 | 0 | 277 | 4.8 | 8.0 | 0.00 | 0.00 | 0.00 | 54 | 1009.5 |
| 20260505180903 | 0 | 278 | 8.0 | 12.9 | 0.00 | 0.00 | 0.00 | 53 | 1009.5 |
| 20260505180213 | 1 | 281 | 6.4 | 11.3 | 0.00 | 0.00 | 0.00 | 53 | 1009.4 |
| 20260505175615 | 1 | 298 | 4.8 | 19.3 | 0.00 | 0.00 | 0.00 | 52 | 1009.5 |
| 20260505174717 | 1 | 302 | 19.3 | 19.3 | 0.00 | 0.00 | 0.00 | 52 | 1009.5 |
| 20260505173605 | 1 | 289 | 8.0 | 24.1 | 0.00 | 0.00 | 0.00 | 53 | 1009.5 |
| 20260505172703 | 2 | 305 | 11.3 | 22.5 | 0.00 | 0.00 | 0.00 | 51 | 1009.5 |
| 20260505172014 | 2 | 310 | 9.7 | 22.5 | 0.00 | 0.00 | 0.00 | 51 | 1009.4 |
| 20260505170903 | 2 | 282 | 6.4 | 14.5 | 0.00 | 0.00 | 0.00 | 53 | 1009.3 |
| 20260505170214 | 2 | 280 | 8.0 | 24.1 | 0.00 | 0.00 | 0.00 | 56 | 1009.3 |
| 20260505165403 | 2 | 302 | 19.3 | 24.1 | 0.00 | 0.00 | 0.00 | 56 | 1009.3 |
| 20260505164503 | 2 | 359 | 8.0 | 9.7 | 0.00 | 0.00 | 0.00 | 52 | 1009.3 |
| 20260505163604 | 2 | 313 | 9.7 | 12.9 | 0.00 | 0.00 | 0.00 | 50 | 1009.5 |
| 20260505162703 | 2 | 305 | 12.9 | 14.5 | 0.00 | 0.00 | 0.00 | 47 | 1009.4 |
| 20260505162015 | 3 | 292 | 8.0 | 17.7 | 0.00 | 0.00 | 0.00 | 46 | 1009.2 |
| 20260505161117 | 4 | 293 | 17.7 | 17.7 | 0.00 | 0.00 | 0.00 | 45 | 1009.2 |
| 20260505160214 | 3 | 277 | 0.0 | 9.7 | 0.00 | 0.05 | 0.00 | 49 | 1009.0 |
| 20260505152705 | 3 | 287 | 11.3 | 11.3 | 0.00 | 0.05 | 0.00 | 51 | 1009.1 |
| 20260505151804 | 2 | 290 | 8.0 | 14.5 | 0.00 | 0.05 | 0.00 | 48 | 1009.2 |
| 20260505150903 | 2 | 282 | 12.9 | 16.1 | 0.00 | 0.05 | 0.00 | 45 | 1009.2 |
| 20260505140216 | 5 | 297 | 8.0 | 9.7 | 0.00 | 0.05 | 0.00 | 41 | 1009.0 |
| 20260505124503 | 5 | 272 | 6.4 | 12.9 | 0.00 | 0.05 | 0.00 | 38 | 1009.1 |
| 20260505123812 | 6 | 285 | 11.3 | 12.9 | 0.00 | 0.05 | 0.00 | 39 | 1009.0 |
| 20260505122703 | 4 | 299 | 9.7 | 20.9 | 0.00 | 0.05 | 0.00 | 38 | 1009.1 |
| 20260505122017 | 5 | 292 | 3.2 | 20.9 | 0.00 | 0.05 | 0.00 | 36 | 1009.1 |
| 20260505120903 | 5 | 279 | 14.5 | 16.1 | 0.00 | 0.05 | 0.00 | 39 | 1009.1 |
| 20260505120217 | 5 | 281 | 12.9 | 16.1 | 0.00 | 0.05 | 0.00 | 38 | 1009.1 |
| 20260505115404 | 6 | 294 | 12.9 | 16.1 | 0.00 | 0.05 | 0.00 | 37 | 1009.1 |
| 20260505114716 | 6 | 312 | 11.3 | 14.5 | 0.00 | 0.05 | 0.00 | 36 | 1009.1 |
| 20260505113813 | 5 | 282 | 14.5 | 14.5 | 0.00 | 0.05 | 0.00 | 40 | 1009.1 |
| 20260505112703 | 4 | 286 | 27.4 | 27.4 | 0.00 | 0.05 | 0.00 | 41 | 1009.0 |
| 20260505112013 | 4 | 300 | 17.7 | 17.7 | 0.00 | 0.05 | 0.00 | 41 | 1009.0 |
| 20260505111115 | 3 | 279 | 11.3 | 17.7 | 0.00 | 0.05 | 0.00 | 42 | 1009.0 |
| 20260505101803 | 2 | 280 | 22.5 | 22.5 | 0.00 | 0.05 | 0.00 | 48 | 1009.0 |
| 20260505100903 | 1 | 313 | 11.3 | 25.7 | 0.00 | 0.05 | 0.00 | 46 | 1009.0 |
| 20260505100213 | 1 | 287 | 19.3 | 19.3 | 0.00 | 0.05 | 0.00 | 48 | 1009.0 |
| 20260505095615 | 2 | 285 | 11.3 | 27.4 | 0.00 | 0.05 | 0.00 | 48 | 1009.1 |
| 20260505094503 | 1 | 281 | 27.4 | 27.4 | 0.00 | 0.05 | 0.00 | 48 | 1008.9 |
| 20260505093814 | 1 | 289 | 16.1 | 19.3 | 0.00 | 0.05 | 0.00 | 48 | 1008.9 |
| 20260505092917 | 2 | 305 | 11.3 | 25.7 | 0.00 | 0.05 | 0.00 | 47 | 1009.0 |
| 20260505091803 | 2 | 282 | 25.7 | 25.7 | 0.00 | 0.05 | 0.00 | 48 | 1009.0 |
| 20260505090903 | 2 | 270 | 9.7 | 17.7 | 0.00 | 0.05 | 0.00 | 47 | 1008.9 |
| 20260505090219 | 1 | 268 | 11.3 | 17.7 | 0.00 | 0.05 | 0.00 | 49 | 1008.9 |
| 20260505085615 | 1 | 283 | 12.9 | 17.7 | 0.00 | 0.05 | 0.00 | 49 | 1008.8 |
| 20260505084718 | 1 | 284 | 16.1 | 16.1 | 0.00 | 0.05 | 0.00 | 49 | 1008.8 |
| 20260505083815 | 1 | 279 | 11.3 | 20.9 | 0.00 | 0.05 | 0.00 | 50 | 1008.7 |
| 20260505082703 | 1 | 290 | 19.3 | 20.9 | 0.00 | 0.05 | 0.00 | 49 | 1008.7 |
| 20260505082015 | 1 | 278 | 9.7 | 20.9 | 0.00 | 0.05 | 0.00 | 49 | 1008.8 |
| 20260505081117 | 1 | 291 | 20.9 | 20.9 | 0.00 | 0.05 | 0.00 | 50 | 1008.7 |
| 20260505080003 | 0 | 275 | 14.5 | 16.1 | 0.00 | 0.05 | 0.00 | 53 | 1008.5 |
| 20260505075403 | 0 | 272 | 14.5 | 16.1 | 0.00 | 0.05 | 0.00 | 52 | 1008.5 |
| 20260505074713 | 0 | 289 | 16.1 | 27.4 | 0.00 | 0.05 | 0.00 | 53 | 1008.5 |
| 20260505073815 | 0 | 297 | 27.4 | 27.4 | 0.00 | 0.05 | 0.00 | 53 | 1008.5 |
| 20260505072703 | 0 | 278 | 9.7 | 16.1 | 0.00 | 0.05 | 0.00 | 53 | 1008.7 |
| 20260505071803 | 0 | 289 | 12.9 | 19.3 | 0.00 | 0.05 | 0.00 | 53 | 1008.7 |
| 20260505070903 | 0 | 294 | 17.7 | 19.3 | 0.00 | 0.05 | 0.00 | 53 | 1008.5 |
| 20260505070005 | 0 | 282 | 11.3 | 20.9 | 0.00 | 0.05 | 0.00 | 53 | 1008.5 |
| 20260505065403 | 0 | 282 | 12.9 | 22.5 | 0.00 | 0.05 | 0.00 | 54 | 1008.4 |
| 20260505064714 | 0 | 280 | 16.1 | 19.3 | 0.00 | 0.05 | 0.00 | 54 | 1008.3 |
| 20260505063816 | 0 | 299 | 16.1 | 17.7 | 0.00 | 0.05 | 0.00 | 53 | 1008.4 |
| 20260505062703 | 0 | 308 | 3.2 | 9.7 | 0.00 | 0.05 | 0.00 | 56 | 1008.3 |
| 20260505062016 | 0 | 306 | 9.7 | 16.1 | 0.00 | 0.05 | 0.00 | 55 | 1008.2 |
| 20260505061113 | 0 | 292 | 4.8 | 19.3 | 0.00 | 0.05 | 0.00 | 55 | 1008.1 |
| 20260505060215 | 0 | 326 | 9.7 | 12.9 | 0.00 | 0.05 | 0.00 | 53 | 1008.1 |
| 20260505055617 | 0 | 337 | 12.9 | 12.9 | 0.00 | 0.05 | 0.00 | 57 | 1008.0 |
| 20260505054714 | 0 | 58 | 0.0 | 4.8 | 0.00 | 0.05 | 0.00 | 58 | 1008.0 |
| 20260505053603 | 0 | 67 | 0.0 | 1.6 | 0.00 | 0.05 | 0.00 | 61 | 1008.1 |
| 20260505052703 | 0 | 112 | 0.0 | 1.6 | 0.00 | 0.05 | 0.00 | 62 | 1008.1 |
| 20260505052017 | -1 | 37 | 0.0 | 3.2 | 0.00 | 0.05 | 0.00 | 63 | 1008.1 |
| 20260505051114 | -2 | 351 | 0.0 | 3.2 | 0.00 | 0.05 | 0.00 | 64 | 1008.1 |
| 20260505050216 | -2 | 315 | 0.0 | 3.2 | 0.00 | 0.05 | 0.00 | 64 | 1008.0 |
| 20260505040903 | -3 | 46 | 3.2 | 4.8 | 0.00 | 0.05 | 0.00 | 64 | 1007.9 |
| 20260505040004 | -3 | 319 | 0.0 | 9.7 | 0.00 | 0.05 | 0.00 | 63 | 1007.7 |
| 20260505035403 | -3 | 304 | 3.2 | 9.7 | 0.00 | 0.05 | 0.00 | 63 | 1007.5 |
| 20260505034716 | -3 | 347 | 0.0 | 3.2 | 0.00 | 0.05 | 0.00 | 63 | 1007.4 |
| 20260505033605 | -2 | 342 | 4.8 | 11.3 | 0.00 | 0.05 | 0.00 | 63 | 1007.3 |
| 20260505032703 | -2 | 351 | 11.3 | 11.3 | 0.00 | 0.05 | 0.00 | 62 | 1007.3 |
| 20260505031803 | -2 | 333 | 6.4 | 6.4 | 0.00 | 0.05 | 0.00 | 62 | 1007.2 |
| 20260505030903 | -2 | 7 | 3.2 | 9.7 | 0.00 | 0.05 | 0.00 | 62 | 1007.3 |
| 20260505030003 | -2 | 6 | 8.0 | 8.0 | 0.00 | 0.05 | 0.00 | 62 | 1007.3 |
| 20260505025614 | -2 | 353 | 6.4 | 11.3 | 0.00 | 0.05 | 0.00 | 62 | 1007.4 |
| 20260505024716 | -2 | 352 | 4.8 | 8.0 | 0.00 | 0.05 | 0.00 | 63 | 1007.3 |